Zurück zum Katalog

STARLINK-30353

AktivKommunikationVLEO
NORAD 58113·PAYLOAD·🇺🇸 United States

Gestartet Oct 21, 2023 von Vandenberg Space Force Base

Loading…

Nächste Überflüge (nächste 24 Stunden)

TLE

AktuellSource: CelesTrak SupGP

Epoche: Sep 14, 2026, 22:08 UTC

1 58113C 23161S   26257.92270833 -.00004540  00000+0 -13417-3 0  2577
2 58113  53.1603   5.7119 0001191  75.1100  15.1322 15.34384369    18

Verfolge STARLINK-30353 in Echtzeit mit AllMySat

Download on the App Store